Terminal Aerodrome Forecast
Issued by NWS Dallas/Fort Worth, TX

Home | Current Version | Previous Version | Text Only | Print | Product List | Glossary On
Versions: 1 2 3 4 5 6 7 8 9 10 11 12 13 14 15 16 17 18 19 20 21 22 23 24 25 26 27 28 29 30 31 32
000
FTUS44 KFWD 271135
TAFDFW
TAF
KDFW 271135Z 2712/2818 03010KT P6SM BKN070
     FM271400 04011KT 3SM -SHSN BR BKN020 OVC040
     FM280300 07010KT 2SM -FZDZSN BR OVC010
     FM280800 17008KT 2SM -FZDZ BR OVC007=

USA.gov is the U.S. government's official web portal to all federal, state and local government web resources and services.